Dades meteomassalio
Diari Summary for Nil La, TWC- Units:  English    Metric   Both
« Previous Day
Next Day »
Diari Semanal Mensual Anual Personalitzat
  Maxima: Minima: Mijana:
Temperatura: TemperatureC °F 9.4 °F 10.9 °F
Rosada: DewpointC °F 8.1 °F 9.2 °F
Humitat: Humidity % 83 % 88 %
Velocitat del vent: WindSpeedKMH mph 0.0 mph 0 mph
Racha vent: WindSpeedGustKMH mph - -
Vent:- - North
Pressio: PressurehPa in 1014.1 in -
Pluja: 0.0 in    
Historical Graphs
 
 
Tabular Data for Nil La, TWC-
Time Temperature Dew Point Pressure Wind Wind Speed Wind Gust Humidity Rainfall Rate (Hourly) solar Conditions
TemperatureC °F DewpointC °F PressurehPa in Calm     Humidity % HourlyPrecipMM in SolarRadiationWatts/m^2 W/m2 Conditions
00:04 12.8 °F 9.9 °F 1015.1 in Calm     83 % 0.0 in 0.0 W/m2 RA
00:09 13.3 °F 10.7 °F 1015.1 in Calm     84 % 0.0 in 0.0 W/m2 CLR
00:14 13.3 °F 10.7 °F 1015.1 in Calm     84 % 0.0 in 0.0 W/m2 CLR
00:19 13.3 °F 10.9 °F 1015.1 in Calm     85 % 0.0 in 0.0 W/m2 CLR
00:24 13.3 °F 10.9 °F 1015.1 in Calm     85 % 0.0 in 0.0 W/m2 CLR
00:29 13.3 °F 10.9 °F 1015.1 in Calm     85 % 0.0 in 0.0 W/m2 CLR
00:34 13.3 °F 11.1 °F 1015.1 in Calm     86 % 0.0 in 0.0 W/m2 CLR
00:39 13.3 °F 11.1 °F 1015.1 in Calm     86 % 0.0 in 0.0 W/m2 CLR
00:44 12.8 °F 10.5 °F 1015.1 in Calm     86 % 0.0 in 0.0 W/m2 CLR
00:49 12.8 °F 10.5 °F 1014.8 in Calm     86 % 0.0 in 0.0 W/m2 CLR
00:54 12.8 °F 10.5 °F 1014.8 in Calm     86 % 0.0 in 0.0 W/m2 CLR
00:59 12.8 °F 10.5 °F 1014.8 in Calm     86 % 0.0 in 0.0 W/m2 CLR
01:04 12.2 °F 10.1 °F 1014.8 in Calm     87 % 0.0 in 0.0 W/m2 CLR
01:09 12.2 °F 10.1 °F 1014.8 in Calm     87 % 0.0 in 0.0 W/m2 CLR
01:14 12.2 °F 10.1 °F 1014.8 in Calm     87 % 0.0 in 0.0 W/m2 CLR
01:16 12.2 °F 10.1 °F 1014.8 in Calm     87 % 0.0 in 0.0 W/m2 CLR
01:21 12.2 °F 10.1 °F 1014.8 in Calm     87 % 0.0 in 0.0 W/m2 CLR
01:26 12.2 °F 10.3 °F 1014.8 in Calm     88 % 0.0 in 0.0 W/m2 CLR
01:31 12.2 °F 10.3 °F 1014.8 in Calm     88 % 0.0 in 0.0 W/m2 CLR
01:36 11.7 °F 9.7 °F 1014.8 in Calm     88 % 0.0 in 0.0 W/m2 CLR
01:41 11.7 °F 9.7 °F 1014.8 in Calm     88 % 0.0 in 0.0 W/m2 CLR
01:46 11.7 °F 9.7 °F 1014.4 in Calm     88 % 0.0 in 0.0 W/m2 CLR
01:51 11.7 °F 9.7 °F 1014.8 in Calm     88 % 0.0 in 0.0 W/m2 CLR
01:56 11.7 °F 9.7 °F 1014.4 in Calm     88 % 0.0 in 0.0 W/m2 CLR
02:01 11.7 °F 9.7 °F 1014.4 in Calm     88 % 0.0 in 0.0 W/m2 CLR
02:06 11.7 °F 9.9 °F 1014.4 in Calm     89 % 0.0 in 0.0 W/m2 CLR
02:11 11.7 °F 9.9 °F 1014.4 in Calm     89 % 0.0 in 0.0 W/m2 CLR
02:16 11.7 °F 9.9 °F 1014.4 in Calm     89 % 0.0 in 0.0 W/m2 CLR
02:17 11.7 °F 9.9 °F 1014.4 in Calm     89 % 0.0 in 0.0 W/m2 CLR
02:22 11.7 °F 9.9 °F 1014.1 in Calm     89 % 0.0 in 0.0 W/m2 CLR
02:27 11.7 °F 9.9 °F 1014.1 in Calm     89 % 0.0 in 0.0 W/m2 CLR
02:32 11.7 °F 9.9 °F 1014.1 in Calm     89 % 0.0 in 0.0 W/m2 CLR
02:37 12.2 °F 10.6 °F 1014.1 in Calm     90 % 0.0 in 0.0 W/m2 CLR
02:42 12.2 °F 10.6 °F 1014.1 in Calm     90 % 0.0 in 0.0 W/m2 CLR
02:47 11.7 °F 10.1 °F 1014.1 in Calm     90 % 0.0 in 0.0 W/m2 CLR
02:52 11.7 °F 10.1 °F 1014.1 in Calm     90 % 0.0 in 0.0 W/m2 CLR
02:55 11.7 °F 10.1 °F 1014.1 in Calm     90 % 0.0 in 0.0 W/m2 CLR
03:00 11.7 °F 10.1 °F 1014.1 in Calm     90 % 0.0 in 0.0 W/m2 CLR
03:05 11.7 °F 10.1 °F 1014.1 in Calm     90 % 0.0 in 0.0 W/m2 CLR
03:10 11.1 °F 9.6 °F 1014.1 in Calm     90 % 0.0 in 0.0 W/m2 CLR
03:15 11.1 °F 9.6 °F 1014.1 in Calm     90 % 0.0 in 0.0 W/m2 CLR
03:20 11.1 °F 9.6 °F 1014.1 in Calm     90 % 0.0 in 0.0 W/m2 CLR
03:25 11.1 °F 9.6 °F 1014.1 in Calm     90 % 0.0 in 0.0 W/m2 CLR
03:30 10.6 °F 9.0 °F 1014.1 in Calm     90 % 0.0 in 0.0 W/m2 CLR
03:35 10.6 °F 9.0 °F 1014.1 in Calm     90 % 0.0 in 0.0 W/m2 CLR
03:40 10.6 °F 9.0 °F 1014.1 in Calm     90 % 0.0 in 0.0 W/m2 CLR
03:45 10.6 °F 9.0 °F 1014.1 in Calm     90 % 0.0 in 0.0 W/m2 CLR
03:50 10.6 °F 9.0 °F 1014.1 in Calm     90 % 0.0 in 0.0 W/m2 CLR
03:55 10.6 °F 9.0 °F 1014.1 in Calm     90 % 0.0 in 0.0 W/m2 CLR
04:00 10.6 °F 9.0 °F 1014.1 in Calm     90 % 0.0 in 0.0 W/m2 CLR
04:05 10.0 °F 8.4 °F 1014.1 in Calm     90 % 0.0 in 0.0 W/m2 CLR
04:10 10.0 °F 8.4 °F 1014.1 in Calm     90 % 0.0 in 0.0 W/m2 CLR
04:15 10.0 °F 8.4 °F 1014.1 in Calm     90 % 0.0 in 0.0 W/m2 CLR
04:20 10.0 °F 8.4 °F 1014.1 in Calm     90 % 0.0 in 0.0 W/m2 CLR
04:25 10.0 °F 8.6 °F 1014.1 in Calm     91 % 0.0 in 0.0 W/m2 CLR
04:30 10.0 °F 8.6 °F 1014.1 in Calm     91 % 0.0 in 0.0 W/m2 CLR
04:35 10.0 °F 8.6 °F 1014.1 in Calm     91 % 0.0 in 0.0 W/m2 CLR
04:40 9.4 °F 8.1 °F 1014.1 in Calm     91 % 0.0 in 0.0 W/m2 CLR
04:45 9.4 °F 8.1 °F 1014.1 in Calm     91 % 0.0 in 0.0 W/m2 CLR
04:50 9.4 °F 8.1 °F 1014.1 in Calm     91 % 0.0 in 0.0 W/m2 CLR
04:55 9.4 °F 8.1 °F 1014.1 in Calm     91 % 0.0 in 0.0 W/m2 CLR
05:00 9.4 °F 8.1 °F 1014.1 in Calm     91 % 0.0 in 0.0 W/m2 CLR
05:05 9.4 °F 8.1 °F 1014.1 in Calm     91 % 0.0 in 0.0 W/m2 CLR
05:10 9.4 °F 8.1 °F 1014.1 in Calm     91 % 0.0 in 0.0 W/m2 CLR
05:15 9.4 °F 8.1 °F 1014.1 in Calm     91 % 0.0 in 0.0 W/m2 CLR
05:20 9.4 °F 8.1 °F 1014.1 in Calm     91 % 0.0 in 0.0 W/m2 CLR
05:25 9.4 °F 8.1 °F 1014.4 in Calm     91 % 0.0 in 0.0 W/m2 CLR
05:30 10.0 °F 8.6 °F 1014.4 in Calm     91 % 0.0 in 0.0 W/m2 CLR
05:35 9.4 °F 8.1 °F 1014.4 in Calm     91 % 0.0 in 0.0 W/m2 CLR
05:41 9.4 °F 8.1 °F 1014.4 in Calm     91 % 0.0 in 0.0 W/m2 CLR
05:46 9.4 °F 8.1 °F 1014.4 in Calm     91 % 0.0 in 0.0 W/m2 CLR
05:51 9.4 °F 8.2 °F 1014.4 in Calm     92 % 0.0 in 0.0 W/m2 CLR
05:56 9.4 °F 8.2 °F 1014.8 in Calm     92 % 0.0 in 0.0 W/m2 CLR
06:01 9.4 °F 8.2 °F 1014.4 in Calm     92 % 0.0 in 0.0 W/m2 CLR
06:06 9.4 °F 8.1 °F 1014.8 in Calm     91 % 0.0 in 0.0 W/m2 CLR
06:11 9.4 °F 8.1 °F 1014.8 in Calm     91 % 0.0 in 0.0 W/m2 CLR
06:16 9.4 °F 8.2 °F 1014.8 in Calm     92 % 0.0 in 0.0 W/m2 CLR
06:21 9.4 °F 8.2 °F 1014.8 in Calm     92 % 0.0 in 0.0 W/m2 CLR
Lo Temps de Massalio
Compliments of Weather Underground - 512 kb